Regional Weather Roundup
Issued by NWS Kansas City/Pleasant Hill, MO

Home | Current Version | Previous Version | Text Only | Print | Product List | Glossary On
Versions: 1 2 3 4 5 6 7 8 9 10 11 12 13 14 15 16 17 18 19 20 21 22 23 24 25 26 27 28 29 30 31 32 33 34 35 36 37 38 39 40 41 42 43 44 45 46 47 48 49 50
000
ASUS43 KEAX 192210
RWREAX

WEATHER ROUNDUP FOR EASTERN KANSAS AND NORTHWEST MISSOURI
NATIONAL WEATHER SERVICE KANSAS CITY/PLEASANT HILL MO
500 PM CDT THU APR 19 2018

KSZ040-057-103>105-MOZ028-029-037-043-192300-
...KANSAS CITY METROPOLITAN AREA...

CITY           SKY/WX    TMP DP  RH WIND       PRES   REMARKS
K.C. INTL      MOSUNNY   58  29  33 E10       30.39F
K.C. DOWNTOWN  SUNNY     60  30  32 NE8       30.38F
LEES SUMMIT    SUNNY     57  30  35 E8        30.39F
OLATHE - IXD   SUNNY     59  30  33 N12       30.39F
OLATHE - OJC   SUNNY     57  31  37 NE12G18   30.38F
LAWRENCE       SUNNY     61  30  31 E9        30.38F

$$

MOZ001>008-011>017-020>025-030>033-038>040-044>046-053-054-192300-
...NORTHERN AND CENTRAL MISSOURI...

CITY           SKY/WX    TMP DP  RH WIND       PRES   REMARKS
ST. JOSEPH     SUNNY     59  30  33 NE7       30.39F
MOSBY          CLEAR     57  28  33 N8        30.40F
WARRENSBURG    SUNNY     55  30  38 NE6       30.40F
WHITEMAN AFB   MOSUNNY   56  30  38 NE8       30.36F
CLINTON        SUNNY     55  32  41 NE10G16   30.40F
SEDALIA        SUNNY     57  32  38 NE8G17    30.41F
WARSAW         NOT AVBL
CHILLICOTHE      N/A     58  30  34 MISG      30.42F
KIRKSVILLE     SUNNY     56  30  37 N8        30.43F

$$

MOZ041-047>049-056>058-063>065-088>090-097-192300-
...EASTERN AND SOUTHERN MISSOURI...

CITY           SKY/WX    TMP DP  RH WIND       PRES   REMARKS
ST. LOUIS INTL MOSUNNY   55  31  39 NE6       30.40S
SPIRIT OF STL  MOSUNNY   55  31  39 VRB5      30.40F
COLUMBIA       SUNNY     57  28  33 NE13      30.40F
JEFFERSON CITY SUNNY     57  28  33 N5        30.40F
ROLLA          SUNNY     54  30  40 N8        30.38F
OSAGE BEACH    SUNNY     56  31  38 NE12G17   30.39F
SPRINGFIELD    SUNNY     56  31  38 NE14      30.36S
BRANSON        MOSUNNY   55  28  35 NE9       30.35F
JOPLIN         SUNNY     56  33  42 N14G21    30.36F
WEST PLAINS    SUNNY     55  29  36 NE10G20   30.35F

$$

IAZ060-094-KSZ022-034>040-054-083-096-NEZ052-066-093-192300-
...KANSAS...SOUTHEAST NEBRASKA AND IOWA...

CITY           SKY/WX    TMP DP  RH WIND       PRES   REMARKS
TOPEKA         SUNNY     60  31  33 NE7       30.37F
MANHATTAN      SUNNY     60  28  29 NE10      30.36F
EMPORIA        SUNNY     58  30  34 E14G20    30.35F
CHANUTE        SUNNY     59  30  33 VRB7      30.36F
WICHITA        MOSUNNY   61  28  28 NE9       30.34F
OMAHA          MOSUNNY   58  27  30 VRB5      30.39F
LINCOLN        SUNNY     59  25  27 VRB7      30.39F
FALLS CITY     SUNNY     59  26  28 E7        30.38F
LAMONI         SUNNY     56  28  34 E7        30.41F
DES MOINES     MOSUNNY   53  24  32 E9        30.44F

$$




USA.gov is the U.S. government's official web portal to all federal, state and local government web resources and services.